Dewpoint
58 50 46 43 44 47 45 45 38 41 36 28 24 25 19 21 24 21 20 20 19 23 23 25 22 24 22 23 15 16 18 20 21 28 37 51 59 63 64 63 64 63 68 70 71 72 72 72 73 73 72 72 72 72 72 71 71 71 71 71 71 71 71 71 71 71 71 71 70 70 70 69 70 69 70 70 70 70 71 71 71 71 70 70 69 69 68 68 66 65 64 63 62 64 65 65 66
44 43 43 44 47 51 46 41 40 27 32 21 21 17 20 23 25 20 19 20 21 24 29 23 22 23 27 26 21 19 20 23 28 34 47 55 58 60 62 63 63 64 67 70 70 71 71 72 72 73 72 72 72 72 72 71 71 71 71 71 71 71 71 71 70 70 69 69 69 69 69 69 68 69 69 69 69 69 70 71 70 70 70 70 69 68 68 67 66 65 64 63 61 62 64 65 65
45 45 45 42 43 47 45 40 36 28 28 18 19 20 20 21 20 21 19 19 21 22 25 25 25 24 24 23 19 18 24 30 31 38 45 55 51 55 61 65 64 65 66 69 69 69 71 72 72 73 72 72 72 72 72 72 71 71 71 71 71 71 71 71 70 70 69 69 69 69 69 69 69 69 69 68 68 68 69 70 70 70 70 70 70 68 67 67 65 64 63 62 60 61 62 64 65
54 52 50 46 48 46 41 35 36 27 26 19 18 25 24 21 21 20 21 21 22 23 24 23 24 24 23 20 21 24 26 32 44 44 42 55 56 57 59 61 63 64 67 68 67 69 71 71 71 73 72 72 72 72 72 72 71 71 71 71 71 71 71 71 70 70 69 69 69 69 68 69 69 69 69 69 68 68 69 70 70 69 69 69 69 68 67 66 64 64 63 61 59 60 62 63 64
53 55 53 46 49 46 42 38 26 25 20 20 19 23 20 20 21 21 22 22 21 19 20 22 21 22 22 24 26 27 31 35 47 53 55 61 62 59 61 64 63 65 66 65 66 69 71 70 72 72 73 72 72 72 71 72 71 71 71 71 71 71 71 71 70 70 70 69 69 69 69 69 69 69 69 69 68 69 68 69 69 68 67 67 67 67 67 66 65 64 62 61 60 60 61 61 63
47 51 56 50 45 43 35 26 26 20 24 21 16 16 16 17 18 19 21 18 18 15 20 21 21 23 23 31 36 35 43 32 41 55 57 61 63 63 64 64 60 63 64 65 68 71 71 70 72 72 73 72 72 71 72 71 72 72 71 70 70 71 71 71 70 70 69 69 69 69 69 69 69 69 70 69 68 69 69 69 68 67 67 67 67 67 67 66 65 63 62 62 61 59 60 61 61
49 45 48 50 47 42 40 31 21 19 19 17 16 15 17 17 17 17 16 16 19 14 19 21 21 19 22 32 34 45 52 52 50 55 61 63 64 64 65 59 60 62 65 65 71 71 71 70 72 73 73 72 72 71 71 71 71 71 70 70 70 70 71 71 71 70 69 69 69 69 69 69 69 69 69 68 68 68 69 69 67 67 66 66 67 67 67 66 65 64 62 62 61 59 59 61 62
52 48 48 43 41 30 31 27 23 21 22 19 19 17 16 18 22 22 18 21 15 17 16 21 20 18 21 25 29 37 51 52 54 57 59 61 64 64 65 62 59 62 63 69 71 70 70 70 72 72 72 72 72 71 71 71 71 71 71 70 70 70 70 70 70 69 69 69 69 69 69 69 69 69 69 68 68 68 69 69 67 67 67 66 67 67 67 66 65 64 63 62 61 59 58 60 62
51 46 49 44 38 35 28 23 20 14 19 19 19 27 34 25 23 19 12 12 15 15 14 16 18 19 22 29 29 37 40 51 55 59 60 62 62 63 64 64 64 65 65 69 70 71 70 69 71 72 72 72 72 72 72 71 71 71 71 71 70 70 71 71 70 70 69 69 69 69 69 69 69 69 68 68 68 69 69 68 68 67 66 66 66 67 66 66 65 64 63 62 61 59 58 59 61
44 42 37 39 40 32 26 25 22 20 19 19 17 16 17 21 20 20 12 14 15 17 19 22 17 11 22 25 26 32 39 46 51 57 60 62 62 62 63 64 65 65 65 66 70 70 70 69 67 69 71 72 72 72 72 71 71 71 71 71 70 70 70 70 71 71 69 69 69 69 68 69 69 69 68 69 69 69 69 68 67 66 65 65 67 66 65 64 64 63 63 62 61 59 57 58 60
41 42 45 39 33 26 30 23 22 23 20 21 18 19 19 19 20 17 16 15 20 18 20 22 18 14 19 27 29 36 40 46 51 54 58 62 63 62 63 64 64 65 65 67 67 70 70 69 66 67 68 70 71 72 72 72 71 72 71 71 71 71 70 70 70 69 69 69 69 68 68 69 69 69 68 68 68 67 68 67 67 66 66 67 67 66 65 64 63 63 63 62 60 59 57 58 58
38 35 40 35 32 29 22 23 25 21 18 18 18 19 22 19 24 18 16 16 18 18 19 21 23 20 20 26 33 29 33 39 49 56 56 59 61 64 63 63 64 64 65 65 65 66 70 69 69 66 65 66 69 71 71 71 71 71 71 70 70 71 70 70 69 69 69 69 69 69 69 69 69 68 68 68 68 68 68 67 66 66 66 67 66 65 64 63 63 63 62 61 60 58 56 57 57
40 41 28 25 32 24 26 24 24 24 22 18 18 20 20 19 18 19 18 18 20 18 20 21 22 24 19 24 28 29 29 34 44 52 57 57 59 63 63 63 64 64 64 64 64 65 66 67 69 69 66 64 65 67 69 69 71 71 71 70 71 70 70 70 70 69 69 69 69 69 69 69 69 68 68 68 68 67 67 68 67 66 66 66 66 65 64 64 63 63 62 61 59 57 55 56 56
46 40 36 34 33 25 22 26 24 24 22 21 19 20 23 20 20 19 19 19 19 20 25 24 23 21 21 23 26 28 30 37 37 48 55 57 59 61 63 63 63 63 64 64 64 64 65 65 66 69 68 69 69 66 65 68 69 70 71 70 70 70 70 70 70 69 70 70 70 70 69 69 70 69 68 68 68 67 68 67 67 66 66 66 65 65 64 63 63 62 62 61 59 56 53 54 54
45 35 32 32 21 19 21 23 26 23 22 22 18 18 20 22 22 22 20 21 20 23 23 24 29 26 21 22 31 38 33 36 39 43 57 54 56 58 61 62 62 63 62 64 64 65 64 65 65 66 69 69 69 70 70 68 66 68 69 69 69 70 70 70 70 69 69 70 69 69 68 68 67 67 68 68 68 67 67 67 67 67 66 66 65 65 64 63 63 62 61 60 57 54 52 52 52
44 36 36 30 22 17 28 24 25 22 22 20 21 19 18 21 23 22 23 23 27 31 25 22 25 23 26 28 31 33 31 36 36 40 50 53 54 56 57 54 53 53 55 60 62 63 64 65 65 65 66 66 67 68 69 70 64 65 67 67 68 69 69 69 68 68 66 65 65 64 63 63 63 65 64 66 65 67 66 66 66 66 66 66 65 64 64 63 63 62 62 60 57 53 50 50 50
41 41 26 21 22 17 23 24 23 19 22 23 22 19 18 19 23 23 27 32 22 22 23 25 26 28 28 29 31 33 34 34 40 37 47 50 48 45 46 48 48 48 50 49 51 59 63 64 64 64 65 66 66 66 67 71 68 64 64 64 65 67 67 67 67 63 60 60 61 59 60 67 68 67 65 67 62 65 60 63 66 67 66 66 65 65 64 63 62 62 61 60 57 54 56 53 52
42 36 27 26 20 19 22 20 22 26 23 19 19 19 20 19 22 25 25 23 23 22 23 26 28 29 29 31 34 35 38 35 33 36 39 42 43 41 41 42 43 46 48 49 48 48 51 58 63 64 64 65 66 66 67 70 68 67 68 67 67 66 64 63 64 66 65 66 61 62 67 68 67 68 67 67 66 64 62 61 63 66 67 66 65 65 64 64 63 62 61 60 58 53 51 44 47
42 32 22 22 25 24 21 21 22 21 21 20 22 23 22 22 24 25 22 20 20 19 23 25 27 28 29 30 32 33 33 35 35 35 36 40 38 36 41 45 44 45 48 49 49 49 51 51 51 56 64 65 66 66 67 68 69 69 68 69 68 66 67 67 68 68 68 68 67 68 66 67 65 67 67 66 66 63 64 60 63 64 66 65 65 65 64 64 63 62 62 61 60 59 51 54 50
35 30 30 25 27 23 21 22 23 23 23 22 22 24 22 23 25 25 24 19 21 20 22 24 26 28 28 30 32 32 33 35 37 36 37 38 39 39 39 41 43 46 47 49 51 51 52 52 53 52 56 63 64 65 65 65 67 69 68 68 68 68 68 68 68 67 67 67 68 68 67 65 66 65 62 62 65 65 62 60 62 62 63 63 63 63 64 65 64 63 62 62 61 58 55 54 52
30 27 28 29 18 23 21 23 23 23 23 23 23 23 23 23 24 24 22 20 19 21 26 22 23 27 29 30 32 31 32 33 35 37 37 39 40 41 40 42 44 46 48 50 50 50 53 53 54 54 54 59 63 65 65 64 64 65 66 67 67 67 67 67 67 67 67 67 66 66 65 65 66 66 65 65 66 66 65 64 63 63 63 63 61 63 63 63 62 61 59 58 58 57 56 55 54
35 22 25 22 18 25 22 24 26 25 26 23 24 23 23 24 26 24 22 18 20 27 28 28 28 28 29 29 31 32 32 34 34 35 37 39 41 41 41 42 43 48 50 49 50 50 54 54 54 54 54 55 61 64 64 64 65 64 65 65 66 67 67 67 66 66 67 66 67 67 65 65 65 64 65 66 65 65 66 66 65 65 62 63 62 62 62 62 61 61 59 58 57 57 56 54 53
26 24 22 23 23 24 24 24 29 25 25 24 23 24 24 24 22 22 22 20 27 29 28 28 28 29 30 31 31 32 35 34 34 37 38 39 40 43 42 42 43 47 49 49 50 52 54 54 53 55 54 54 60 63 63 64 64 64 65 65 64 65 67 66 66 67 67 66 66 66 66 65 65 65 64 64 63 63 64 65 65 65 64 63 62 62 61 61 61 60 60 58 58 57 55 54 52
28 20 22 24 25 22 26 25 29 24 25 24 25 26 24 23 20 23 21 27 27 28 28 28 28 29 30 30 32 33 34 34 35 36 39 39 41 44 45 43 45 47 49 50 52 54 54 53 53 54 54 54 59 62 63 62 64 65 64 64 65 64 65 65 65 65 65 66 66 65 63 64 64 65 65 65 63 63 63 63 64 64 64 63 63 63 63 61 62 61 60 59 58 57 55 54 52
25 23 25 26 26 24 25 24 25 25 24 23 27 25 22 22 21 23 22 28 28 28 28 28 28 29 29 30 32 33 35 37 34 37 40 41 44 44 46 45 45 47 49 51 53 53 53 53 54 54 53 53 59 62 62 62 64 65 65 64 63 61 62 62 62 62 62 63 64 64 64 64 64 65 65 65 66 64 63 64 64 64 63 63 62 62 62 61 62 60 60 60 59 58 57 56 54
26 25 25 25 24 24 23 24 24 24 25 25 24 23 23 23 24 22 22 27 27 28 28 28 28 28 28 29 30 31 32 36 40 36 37 43 42 40 44 44 45 47 50 51 51 52 52 52 57 55 52 52 56 60 62 63 64 63 61 61 61 61 61 61 61 60 60 61 62 62 62 62 63 63 63 64 64 65 64 64 64 64 63 63 63 61 60 60 59 59 59 58 57 57 55 55 55
26 24 26 24 24 25 26 23 23 24 25 24 23 22 22 23 22 19 27 27 28 27 27 28 28 28 28 29 30 31 32 34 35 39 39 41 39 40 43 44 45 48 50 49 49 50 51 55 58 59 60 61 62 61 60 59 60 59 59 59 59 59 59 59 58 58 59 60 60 61 61 62 61 61 61 61 61 62 61 61 61 60 60 59 60 59 58 58 57 57 56 56 57 57 56 55 55
27 26 24 24 24 25 25 24 23 23 23 23 23 22 24 23 27 20 26 27 27 26 27 27 28 27 28 30 31 35 32 34 34 37 38 37 39 40 42 44 44 48 49 48 49 50 54 57 57 57 57 59 59 59 57 56 56 57 56 56 56 56 57 56 56 56 57 59 59 59 59 60 60 60 60 59 60 60 59 59 59 59 59 59 59 58 58 57 56 56 56 56 57 57 57 55 56
26 25 24 25 25 24 24 23 24 23 24 23 23 21 20 22 20 23 27 27 26 26 26 26 27 27 30 29 30 31 32 33 35 36 37 37 38 40 42 44 44 46 47 48 48 52 55 56 56 55 53 54 55 55 54 53 54 53 53 54 54 54 53 53 53 54 53 54 54 57 58 58 58 58 58 58 57 58 58 58 58 58 59 59 59 59 58 58 57 56 56 56 56 57 57 55 56
27 25 25 24 23 23 24 24 24 23 24 23 22 22 21 20 21 26 26 26 25 25 25 26 27 28 28 29 29 31 33 33 35 37 37 38 38 40 42 42 43 45 47 47 48 52 53 55 54 53 51 50 50 51 50 49 49 49 48 48 49 49 48 48 49 50 51 51 51 51 52 56 58 58 58 57 57 57 57 57 57 57 57 57 58 57 56 56 56 56 56 55 55 55 54 53 53
25 25 25 26 26 26 24 23 22 22 24 22 23 24 20 20 23 26 26 26 25 24 25 26 26 27 28 31 30 32 33 33 34 36 39 40 37 41 42 42 43 44 45 46 49 51 51 51 51 49 49 48 46 47 47 47 46 46 46 46 46 46 45 45 45 46 47 48 48 49 49 51 54 56 57 56 55 55 54 55 56 56 56 56 56 57 57 55 54 52 52 54 54 54 53 51 51
24 26 25 30 26 27 23 24 22 21 23 22 21 28 21 20 21 24 25 25 25 24 24 25 26 26 28 29 29 30 31 33 34 35 36 37 39 39 41 42 43 43 44 45 49 50 49 48 47 47 46 46 45 44 44 44 44 44 44 45 44 44 43 43 43 44 44 45 45 46 47 47 48 50 52 53 52 52 51 51 51 51 52 52 53 52 52 52 50 49 49 51 51 48 49 48 48
26 25 29 29 29 29 25 24 24 27 21 22 21 21 21 19 21 22 24 24 24 23 23 25 26 26 28 29 28 29 31 32 35 34 37 38 38 37 39 41 42 42 43 45 48 49 48 47 46 45 45 44 45 44 42 42 42 41 41 41 41 42 41 41 42 42 42 43 43 43 44 45 46 47 47 47 47 47 48 47 48 48 49 49 49 49 50 50 48 46 45 47 48 46 45 44 44
29 29 27 32 26 23 22 25 25 31 21 20 21 20 20 20 21 22 23 24 23 22 23 24 25 26 27 27 27 29 30 32 32 33 35 38 37 37 40 43 41 42 43 45 47 48 46 45 44 44 44 43 43 43 42 41 40 40 40 39 40 39 39 39 40 40 40 41 41 42 43 43 45 44 45 45 44 44 44 44 44 44 45 45 47 49 50 50 50 47 45 45 45 43 41 41 41
28 30 29 28 26 22 20 24 24 24 22 22 21 21 21 21 20 21 22 23 22 21 22 24 25 26 26 26 27 28 30 32 32 33 35 37 38 37 40 41 42 42 42 45 47 48 47 46 45 43 43 42 42 41 41 40 39 38 37 37 37 36 36 36 36 36 37 37 38 40 40 40 41 43 44 44 43 43 42 43 43 43 43 43 43 43 43 44 47 47 47 45 43 40 40 40 39
24 27 30 28 27 25 22 23 24 23 21 22 22 22 21 21 20 21 21 22 21 20 20 23 26 26 27 27 27 27 30 30 33 35 37 38 39 37 39 40 42 42 43 44 46 47 45 45 45 46 43 42 42 41 41 40 39 38 37 36 35 35 34 34 34 34 34 34 36 36 36 37 38 39 40 41 41 41 41 40 40 40 40 40 39 39 40 40 40 42 42 41 39 38 38 38 37
24 32 33 26 25 24 24 25 25 25 25 23 23 24 23 23 24 21 21 21 21 21 20 22 25 26 27 27 27 27 29 32 37 38 38 39 40 38 39 41 41 41 43 46 45 46 46 46 45 44 44 43 42 41 40 39 37 35 35 34 33 33 33 32 32 32 31 32 33 33 33 33 35 35 37 37 37 39 38 38 38 37 37 37 37 37 37 37 38 39 42 40 37 34 32 34 34
25 31 30 26 32 25 25 26 26 26 27 25 25 25 26 25 25 25 21 21 21 21 21 21 25 26 27 28 28 29 32 37 37 37 38 39 39 40 40 41 42 40 42 44 43 43 44 44 42 42 42 41 40 40 38 37 36 35 33 32 32 32 31 30 29 29 30 31 30 31 31 31 31 32 33 33 33 34 34 33 32 31 32 32 32 32 31 33 32 35 36 39 38 34 31 31 31
31 27 28 29 27 30 26 26 26 27 28 24 25 24 25 25 25 26 25 22 22 22 22 21 25 26 27 28 29 31 34 35 34 34 37 38 40 40 39 40 40 39 41 42 44 43 42 42 42 41 41 40 39 38 37 35 35 34 32 31 30 29 29 29 28 28 28 26 27 28 28 28 29 28 30 31 31 29 28 28 27 26 24 26 25 26 27 27 28 29 30 31 34 36 33 30 26
29 28 28 27 31 30 28 26 26 25 25 24 26 25 25 26 27 27 27 25 23 24 23 25 27 26 27 28 29 31 32 33 33 34 35 38 39 38 38 38 38 39 39 40 41 41 41 40 40 40 39 38 37 36 35 34 33 32 32 30 29 27 26 27 24 24 24 23 24 25 26 26 26 26 27 27 27 27 27 25 25 25 23 23 23 23 25 26 26 26 26 27 29 23 28 29 26
33 32 30 29 32 29 27 26 25 25 25 27 25 26 25 26 26 27 28 29 27 31 32 31 33 34 33 34 33 31 31 32 32 33 34 38 38 37 38 38 38 39 39 39 40 40 39 40 40 38 37 36 35 34 33 32 31 30 29 28 28 26 24 22 20 20 21 23 22 23 24 25 26 25 26 26 27 26 27 26 24 23 24 24 24 23 24 26 26 25 24 23 24 25 21 22 21
28 33 30 28 27 27 27 31 30 29 29 28 29 26 28 30 28 28 28 28 28 29 28 29 30 31 31 30 31 32 35 33 32 33 34 37 37 38 37 38 38 37 37 37 38 40 39 39 38 37 36 35 34 33 33 32 30 29 28 27 25 23 20 19 18 17 19 19 21 22 23 24 25 25 25 26 26 26 25 25 24 22 22 23 25 24 23 24 25 25 25 22 22 24 22 19 16
30 29 35 28 28 32 33 32 30 27 25 29 28 27 26 29 29 30 27 27 27 29 29 28 29 30 31 31 31 31 32 32 32 33 34 35 36 36 36 37 37 36 35 36 38 38 39 39 38 38 36 35 35 34 34 32 30 31 30 28 25 20 18 19 18 19 18 19 20 20 22 23 25 25 25 25 26 26 26 25 24 23 22 22 25 24 24 24 25 26 27 24 22 25 23 20 20
28 37 40 33 32 33 33 33 32 29 32 34 30 31 27 28 29 31 30 27 27 27 27 28 28 29 30 30 31 31 32 32 32 32 33 35 35 36 36 37 35 35 34 35 37 38 37 37 37 37 37 37 37 35 35 34 32 29 25 23 21 18 16 17 16 16 17 18 17 19 21 22 24 25 25 25 26 26 25 25 24 23 23 24 25 24 25 26 26 26 26 26 24 23 22 22 21
33 36 36 35 34 35 36 32 31 31 30 29 29 32 27 27 29 30 30 26 26 26 27 27 28 28 29 30 30 30 31 32 32 33 33 34 35 36 36 34 33 33 34 35 35 35 36 36 35 34 33 33 32 32 31 30 29 26 24 21 20 20 18 18 19 20 17 17 15 17 17 20 22 24 24 24 25 25 26 24 23 22 23 24 26 25 25 25 25 24 23 24 25 24 24 24 23
39 38 37 36 37 34 33 30 30 29 28 28 29 31 27 27 29 29 30 29 26 25 26 26 27 28 28 28 29 30 31 32 32 32 32 34 36 35 33 31 32 33 34 35 34 35 34 33 32 31 30 30 30 29 29 27 26 25 22 20 18 18 18 18 18 18 18 19 17 16 17 18 19 21 23 24 23 24 24 23 23 22 22 23 25 24 23 22 23 24 24 24 24 24 24 24 24
38 37 36 34 33 31 30 30 29 27 27 28 31 31 29 27 30 30 29 29 27 27 26 27 27 28 28 28 29 30 30 31 32 32 33 34 32 31 30 30 31 32 32 33 33 33 33 32 29 28 28 28 28 28 27 26 25 23 21 19 17 17 18 19 19 18 19 18 16 16 17 18 19 20 22 23 24 24 24 24 23 23 24 25 24 24 24 23 22 24 24 23 24 24 24 23 24
37 33 31 31 30 29 27 26 28 26 26 27 30 30 29 26 27 30 27 25 26 25 25 26 26 27 27 28 29 29 30 31 32 31 32 30 29 29 30 30 30 30 31 32 33 32 32 30 27 26 26 27 28 28 27 26 25 24 21 20 20 19 19 19 17 17 17 15 15 15 17 17 18 22 22 23 23 23 23 23 23 23 24 24 24 25 25 25 23 24 24 24 23 24 25 24 24
35 31 30 29 27 26 25 25 23 25 25 22 26 31 29 28 28 28 24 24 25 27 26 26 26 26 27 28 28 29 31 31 31 31 30 29 29 29 29 29 30 30 31 32 32 32 30 28 26 25 25 26 27 28 27 26 26 24 24 22 21 20 20 19 18 17 16 15 15 16 16 17 19 20 21 21 22 22 23 22 23 23 23 25 25 24 25 25 24 23 23 22 22 23 24 24 22
31 29 29 28 26 25 22 25 25 25 25 25 24 30 28 29 27 30 29 28 26 28 29 28 27 27 27 28 28 29 30 30 30 30 29 29 29 29 28 29 30 30 30 31 31 30 29 28 26 25 25 26 26 27 26 26 26 25 24 24 24 22 21 20 20 19 19 19 19 17 17 18 20 20 21 22 22 23 23 24 23 23 23 23 24 24 24 24 25 22 22 22 21 22 24 22 23
28 32 31 30 29 24 22 26 25 24 25 22 26 24 26 24 27 27 25 26 27 27 29 29 29 28 28 28 29 30 30 29 29 29 29 29 29 29 28 29 29 30 30 30 30 29 28 27 26 25 25 25 25 25 25 25 25 25 25 24 23 22 21 21 21 22 18 17 17 16 17 19 19 21 22 23 24 23 23 23 23 23 23 22 22 22 24 23 24 21 22 23 22 22 21 23 21
31 32 34 29 30 29 27 26 24 22 24 22 21 25 25 26 27 28 27 27 27 28 29 28 28 28 29 28 28 29 29 29 29 29 29 29 29 29 28 29 29 29 28 29 28 28 27 27 25 24 24 24 25 25 24 23 23 23 23 21 21 22 23 22 23 22 20 20 18 18 18 19 20 21 22 23 24 24 23 22 23 23 23 23 23 22 22 22 23 20 20 21 19 24 21 21 20
31 32 30 31 34 32 29 26 25 22 23 26 25 24 26 25 25 26 26 26 26 27 27 26 27 28 28 28 28 28 28 29 29 29 29 29 29 28 28 28 28 27 27 28 28 28 27 26 24 23 23 24 24 23 23 22 22 22 22 21 21 20 20 20 20 21 21 21 20 20 20 20 21 22 24 23 23 23 23 23 22 22 23 23 22 22 22 21 22 20 20 20 19 19 21 20 20
31 28 31 35 37 35 29 26 25 25 24 25 25 25 25 24 25 25 25 25 25 26 26 26 27 28 27 28 29 28 28 29 29 29 29 28 28 27 28 28 27 26 27 26 27 27 26 25 23 23 23 22 23 22 22 22 22 21 21 20 21 22 22 22 22 21 22 21 21 20 20 21 22 24 24 24 23 22 22 24 22 21 22 22 21 20 20 19 20 18 18 19 19 18 18 18 19
32 32 37 30 27 26 27 27 24 23 25 25 24 25 26 25 26 23 24 24 24 25 26 26 26 27 27 28 28 28 28 29 29 28 28 28 28 27 27 26 25 25 26 25 27 27 26 24 23 22 22 22 22 23 22 23 23 24 24 23 23 23 23 23 22 22 21 20 21 21 21 21 22 23 24 23 23 22 22 21 20 19 19 19 19 18 19 18 18 15 17 16 17 16 16 15 16
36 35 32 35 29 27 28 28 26 26 25 21 24 26 25 28 26 24 24 24 24 24 26 25 26 27 27 28 29 28 28 28 28 28 28 28 27 26 26 25 24 24 24 25 26 26 24 24 23 22 22 22 22 22 23 23 24 25 24 23 23 23 23 23 22 22 22 22 21 21 22 22 22 23 23 22 21 19 19 17 17 17 17 18 17 16 17 15 16 14 14 15 15 14 13 12 13
29 29 28 30 27 31 29 27 27 26 23 23 24 23 25 28 27 25 24 24 24 25 26 27 26 27 28 28 29 28 28 28 28 28 27 27 26 26 25 24 24 24 24 25 26 24 24 23 22 22 21 21 21 22 23 24 23 22 22 21 22 22 22 23 23 22 22 22 22 23 22 21 21 20 19 18 18 17 17 17 17 17 16 16 15 13 15 13 13 11 10 14 14 12 9 9 12
31 30 29 30 29 27 25 25 28 27 26 24 21 23 24 28 25 25 24 24 25 26 26 27 27 27 28 29 28 28 28 27 27 27 27 27 26 25 24 24 23 23 23 24 25 24 23 22 22 22 21 21 20 22 22 22 22 21 21 21 21 22 23 23 22 22 22 22 21 20 20 19 17 19 18 18 17 17 15 15 15 14 13 14 12 12 11 8 8 9 8 16 15 9 6 6 8